Location: Adrasan
(36.3319°N, 30.4314°E)
Time: 07:34:12
(UTC+00:00)

SL-8 R/B - Pass Details

Date: 09 December 2023
Orbit: 653 x 663 km, 48.4° (Epoch: 29 February)

Event Time Altitude Azimuth Distance (km) Brightness Sun altitude
Rises 15:29:38 0° 303° (WNW) 2,978 7.6 -9.3°
Reaches altitude 10° 15:32:00 10° 299° (WNW) 2,066 6.8 -9.8°
Maximum altitude 15:36:41 59° 221° (SW) 759 4.3 -10.7°
Drops below altitude 10° 15:41:22 10° 142° (SE) 2,063 6.1 -11.5°
Sets 15:43:44 0° 138° (SE) 2,974 6.8 -12.0°
